Regional Weather Roundup
Issued by NWS Little Rock, AR

Home | Current Version | Previous Version | Graphics & Text | Print | Product List | Glossary On
Versions: 1 2 3 4 5 6 7 8 9 10 11 12 13 14 15 16 17 18 19 20 21 22 23 24 25 26 27 28 29 30 31 32 33 34 35 36
000
ASUS44 KLZK 221905
RWRLZK

WEATHER ROUNDUP FOR ARKANSAS
NATIONAL WEATHER SERVICE LITTLE ROCK AR
200 PM CDT WED OCT 22 2014

NOTE: "FAIR" INDICATES FEW OR NO CLOUDS BELOW 12,000 FEET WITH NO
SIGNIFICANT WEATHER AND/OR OBSTRUCTIONS TO VISIBILITY.

ARZ001-003-010-029-222000-
NORTHWEST ARKANSAS

CITY           SKY/WX    TMP DP  RH WIND       PRES   REMARKS
FAYETTEVILLE   MOSUNNY   72  53  51 S5        30.17F
FORT SMITH     SUNNY     73  52  47 E9        30.16F
HARRISON       SUNNY     67  50  54 SE6G16    30.21F
BENTONVILLE    MOSUNNY   72  54  53 S5        30.18F
ROGERS         MOSUNNY   71  54  54 SE5       30.18F
SILOAM SPGS    SUNNY     73  54  49 CALM      30.17F
HIGHFILL       SUNNY     73  54  51 SE7       30.17F
SPRINGDALE     MOSUNNY   72  55  56 SE8       30.19F
$$

ARZ004-005-016-222000-
NORTH CENTRAL ARKANSAS

CITY           SKY/WX    TMP DP  RH WIND       PRES   REMARKS
BATESVILLE     SUNNY     68  46  45 N7        30.22F
FLIPPIN        SUNNY     66  45  45 SE6       30.21F
MTN HOME       SUNNY     66  46  48 SE7       30.20F
$$

ARZ040-041-222000-
WEST CENTRAL ARKANSAS

CITY           SKY/WX    TMP DP  RH WIND       PRES   REMARKS
MENA           SUNNY     73  55  53 CALM      30.17F
MOUNT IDA      SUNNY     71  53  52 CALM      30.16F
$$

ARZ009-017-025-026-028-222000-
NORTHEAST ARKANSAS

CITY           SKY/WX    TMP DP  RH WIND       PRES   REMARKS
CORNING        FAIR      64  43  45 E8        30.25F
JONESBORO      SUNNY     64  42  44 E7G18     30.23F
NEWPORT        SUNNY     66  43  43 NE10      30.23F HAZE
WALNUT RIDGE   SUNNY     64  39  39 NE7       30.23F
BLYTHEVILLE    SUNNY     68  43  40 NE7G17    30.23F
NW BLYTHEVILLE SUNNY     64  43  45 E5        30.23F
$$

ARZ022-023-033-042-044-222000-
CENTRAL ARKANSAS

CITY           SKY/WX    TMP DP  RH WIND       PRES   REMARKS
LITTLE ROCK    SUNNY     71  47  42 E10       30.19F
N LITTLE ROCK  SUNNY     71  52  51 NE7       30.19F
JACKSONVILLE   SUNNY     70  49  47 E7        30.20F
SEARCY         SUNNY     68  47  46 E6        30.22F
HOT SPRINGS    SUNNY     72  50  45 E5        30.18F
RUSSELLVILLE   SUNNY     70  49  47 E6        30.19F
$$

ARZ036-222000-
EAST ARKANSAS

CITY           SKY/WX    TMP DP  RH WIND       PRES   REMARKS
WEST MEMPHIS   SUNNY     67  43  41 VRB6      30.20F
$$

ARZ050-053-066-070-073-222000-
SOUTHWEST ARKANSAS

CITY           SKY/WX    TMP DP  RH WIND       PRES   REMARKS
ARKADELPHIA    FAIR      73  54  51 E6        30.18F
CAMDEN         SUNNY     77  48  36 N6        30.17F
TEXARKANA      SUNNY     75  51  43 VRB5      30.15F
EL DORADO      SUNNY     74  49  41 NE10      30.16F
DE QUEEN       SUNNY     75  53  46 E7        30.14F
$$

ARZ056-057-069-222000-
SOUTHEAST ARKANSAS

CITY           SKY/WX    TMP DP  RH WIND       PRES   REMARKS
PINE BLUFF     SUNNY     71  48  43 NE10      30.18F
STUTTGART      SUNNY     70  46  43 N10       30.21F
MONTICELLO     SUNNY     72  49  44 VRB6      30.16F

$$





USA.gov is the U.S. government's official web portal to all federal, state and local government web resources and services.